Location: Newark
(39.9581°N, 97.2014°W)
Time: 03:23:15
(UTC+00:00)

Envisat - Visible Passes

Search period start: 18 January 2020 00:00
Search period end: 28 January 2020 00:00
Orbit: 764 x 766 km, 98.1° (Epoch: 17 January)

Date Brightness Start Highest point End Pass type
(mag) Time Alt. Az. Time Alt. Az. Time Alt. Az.
18 Jan 3.0 00:06:23 10° SSE 00:11:24 66° ENE 00:16:26 10° N visible
18 Jan 6.1 01:48:21 10° WSW 01:50:51 14° W 01:53:22 10° WNW visible
18 Jan 5.5 12:16:38 10° NE 12:20:43 24° E 12:24:46 10° SSE visible
19 Jan 4.9 01:09:17 10° SSW 01:13:45 31° W 01:18:14 10° NW visible
20 Jan 3.3 00:31:48 10° S 00:36:51 71° WSW 00:41:56 10° NNW visible
20 Jan 4.4 12:41:31 10° NNE 12:46:21 42° E 12:51:08 10° S visible
20 Jan 3.2 23:55:14 10° SSE 00:00:08 52° ENE 00:05:04 10° N visible
21 Jan 5.8 01:36:06 10° SW 01:39:27 18° W 01:42:49 10° NW visible
21 Jan 5.9 12:05:46 10° NE 12:09:20 19° E 12:12:52 10° SE visible
22 Jan 4.5 00:57:41 10° SSW 01:02:24 39° W 01:07:10 10° NNW visible
22 Jan 3.3 13:06:47 10° NNE 13:11:53 76° ESE 13:16:57 10° S visible
23 Jan 3.0 00:20:29 10° SSE 00:25:34 89° WSW 00:30:41 10° NNW visible
23 Jan 4.9 12:30:25 10° NNE 12:35:00 33° E 12:39:33 10° SSE visible
24 Jan 5.5 01:24:08 10° SW 01:28:03 22° W 01:32:00 10° NW visible
24 Jan 6.1 11:55:07 10° ENE 11:57:56 15° E 12:00:43 10° SE visible
25 Jan 4.0 00:46:10 10° S 00:51:04 50° W 00:56:01 10° NNW visible
25 Jan 3.7 12:55:33 10° NNE 13:00:36 59° E 13:05:35 10° S visible
26 Jan 3.0 00:09:15 10° SSE 00:14:17 72° ENE 00:19:22 10° N visible
26 Jan 6.3 01:51:47 10° WSW 01:53:48 12° W 01:55:51 10° WNW visible
26 Jan 5.4 12:19:24 10° NE 12:23:39 26° E 12:27:52 10° SSE visible
27 Jan 5.1 01:12:21 10° SSW 01:16:41 28° W 01:21:03 10° NW visible
27 Jan 6.4 11:44:59 10° ENE 11:46:30 11° E 11:48:01 10° ESE visible
